Volver al catálogo

STARLINK-6079

ActivoComunicacionesVLEO
NORAD 56120·PAYLOAD·🇺🇸 United States

Lanzado Mar 29, 2023 desde Cape Canaveral Space Force Station

Loading…

Próximos Pases (próximas 24 horas)

TLE

ActualizadoSource: CelesTrak SupGP

Época: Sep 14, 2026, 22:02 UTC

1 56120C 23046AD  26257.91854167 -.00060730  00000+0 -21993-2 0  2572
2 56120  43.0007 158.5907 0000792 246.8840 241.1883 15.27614951    14

Sigue STARLINK-6079 en tiempo real con AllMySat

Download on the App Store